Location: Round Knob
(37.2473°N, 88.7376°W)
Time: 15:00:21
(UTC+00:00)

X-37B - Pass Details

Date: 02 October 2021
Orbit: 385 x 389 km, 45.0° (Epoch: 17 October)

Event Time Altitude Azimuth Distance (km) Brightness Sun altitude
Exits shadow 09:29:45 14° 55° (NE) 1,179 3.8 -28.6°
Drops below altitude 10° 09:30:30 10° 65° (ENE) 1,411 4.4 -28.5°
Sets 09:32:52 0° 81° (E) 2,265 5.7 -28.1°
